www.pogodaiklimat.ru

Погода и климат >> Архив погоды >> Россия >> Астраханская область >> Черный Яр


ПОГОДА в Черный Яр

  • Прогноз погоды в Черный Яр
  • Монитор погоды в Черный Яр

АРХИВ ПОГОДЫ в Черный Яр

Время (UTC), дата Ветер
(напр.,м/с)
 
Видим.   Явления Облачность Т
(С)
Тd
(С)
f
(%)
Тe
(С)
Тes
(С)
Комфортность P
(гПа)
Po
(гПа)
Тmin
(С)
Tmax
(С)
R
(мм)
R24
(мм)
S
(см)
21 11.08 З 3 10 км 10/0
[Ac und]
+18.0 +8.9 55 +18 +18 1013.0 1012.3
00 12.08 З 2 10 км ясно +14.7 +9.9 73 +14 +14 1013.4 1012.7
03 12.08 З 4 10 км 10/0
[Ac cast]
+15.4 +10.1 71 +14 +15 1014.1 1013.4 +13.2
06 12.08 СЗ 6-10
{11}
10 км 10/0
[Cs]
+19.4 +7.9 47 +20 +23 1014.8 1014.1
09 12.08 З 7-13
{13}
10 км пыльный позёмок 10/1 1000 м
[Cu hum Cs]
+23.1 +5.0 31 +23 +26 комфорт 1014.3 1013.7
12 12.08 З 7-12
{14}
10 км пыльный позёмок 10/1 1000 м
[Cu hum Cs]
+24.6 +2.8 24 +24 +26 комфорт 1014.0 1013.4
15 12.08 СЗ 5
{12}
10 км 3/0
[Ci fib]
+23.5 +1.9 24 +23 +23 комфорт 1014.4 1013.7 +24.8
18 12.08 СЗ 2 10 км ясно +17.6 +5.1 44 +18 +18 1016.0 1015.3
21 12.08 З 1 10 км ясно +13.1 +5.3 59 +13 +13 1016.7 1016.0
00 13.08 З 2 10 км ясно +11.5 +6.7 72 +10 +10 1016.9 1016.3
03 13.08 З 2 10 км ясно +11.9 +8.4 79 +11 +12 1017.6 1017.0 +10.6
06 13.08 СЗ 4 10 км 1/0
[Ci fib]
+20.2 +5.2 37 +21 +27 комфорт 1017.8 1017.1
09 13.08 СЗ 4
{11}
10 км ясно +23.2 +2.0 25 +23 +33 комфорт 1017.0 1016.4
12 13.08 СЗ 6-10
{11}
10 км ясно +25.4 -1.7 17 +24 +27 комфорт 1016.1 1015.5
15 13.08 СЗ 4
{11}
10 км 3/0
[Ci fib]
+25.2 -1.0 18 +23 +24 комфорт 1015.8 1015.1 +25.8
18 13.08 СЗ 2 10 км 4/0
[Ci fib]
+18.7 +1.9 33 +19 +19 1016.7 1016.0
21 13.08 СЗ 2 10 км 10/0
[Ac cast Ci fib]
+15.5 +2.4 41 +16 +16 1017.3 1016.7
00 14.08 СЗ 2 10 км 3/0
[Ac cast]
+13.7 +3.6 50 +13 +13 1017.1 1016.4
03 14.08 СЗ 1 10 км ясно +13.7 +5.1 56 +14 +15 1017.8 1017.2 +10.4
06 14.08 СЗ 2 10 км ясно +23.7 +1.8 24 +23 +32 комфорт 1018.2 1017.6
09 14.08 СЗ 3 10 км ясно +27.0 +6.4 27 +26 +39 жарко 1016.8 1016.2
12 14.08 СЗ 3 10 км ясно +29.4 +8.0 26 +29 +36 жарко 1015.2 1014.6
15 14.08 З 2 10 км ясно +29.9 +9.0 27 +29 +30 жарко 1014.6 1014.0 +30.5
18 14.08 ЮЗ 2 10 км 1/0
[Ci fib]
+23.7 +10.0 42 +25 +25 комфорт 1014.8 1014.2
21 14.08 ЮЗ 2 10 км 10/0
[Cs]
+20.9 +9.3 47 +23 +23 комфорт 1014.7 1014.0
00 15.08 ЮЗ 2 10 км 9/0
[Ci fib]
+19.3 +8.6 50 +21 +21 комфорт 1014.4 1013.7
03 15.08 З 1 10 км ясно +19.7 +9.0 50 +22 +23 комфорт 1015.0 1014.3 +17.7
06 15.08 СЗ 3 10 км ясно +30.3 +8.0 25 +29 +37 жарко 1014.9 1014.3
09 15.08 СВ 2 10 км 3/0
[Ci sp]
+34.2 +10.9 24 +34 +48 очень
жарко
1014.0 1013.4
12 15.08 С 2 10 км 1/1 1000 м
[Cu med, cong]
+34.9 +13.0 27 +35 +43 очень
жарко
1012.7 1012.1
15 15.08 ЮВ 1 10 км ясно +33.8 +13.2 29 +35 +35 очень
жарко
1011.7 1011.1 +35.3
18 15.08 Ю 1 10 км 1/0
[Ac cast]
+27.5 +14.3 44 +30 +30 жарко 1012.0 1011.4
21 15.08 Ю 3 10 км 10/0
[Ac trans]
+24.7 +7.9 34 +25 +25 комфорт 1013.6 1013.0
00 16.08 ЮВ 3 10 км 10/0
[Ac trans]
+22.0 +9.7 46 +24 +24 комфорт 1013.8 1013.2
03 16.08 В 3 10 км ясно +19.4 +10.5 56 +21 +21 комфорт 1014.0 1013.3 +19.3
06 16.08 В 3 10 км ясно +26.3 +10.8 38 +27 +35 жарко 1014.5 1013.9
09 16.08 ЮВ 4 10 км 5/0
[Ci fib]
+31.2 +9.0 25 +30 +39 жарко 1012.8 1012.2
12 16.08 В 4
{10}
10 км 5/0
[Ci fib]
+32.7 +9.5 24 +32 +37 жарко 1010.8 1010.2
15 16.08 В 4 10 км 4/0
[Ci fib]
+31.3 +9.9 27 +31 +31 жарко 1009.8 1009.2 +33.0
18 16.08 ЮВ 2 10 км 3/0
[Ci fib]
+25.8 +12.2 43 +27 +27 жарко 1011.7 1011.0
21 16.08 ЮВ 2 10 км 4/0
[Ci fib]
+22.8 +12.5 52 +26 +26 жарко 1011.9 1011.3
00 17.08 В 2 10 км 8/0
[Ci fib]
+20.0 +12.6 62 +22 +22 комфорт 1011.4 1010.8
03 17.08 В 2 10 км 8/0
[Ac trans Ci fib]
+20.1 +9.9 52 +22 +23 комфорт 1010.8 1010.2 +19.2
06 17.08 В 3 10 км 10/0
[Ac cast Ci fib]
+25.9 +12.2 43 +27 +32 жарко 1010.9 1010.3
09 17.08 В 5-10
{10}
10 км 10/0
[Ac cast Ci]
+33.4 +8.4 21 +32 +36 жарко 1010.3 1009.7
12 17.08 ЮВ 2
{11}
10 км 10/0
[As op]
+32.1 +8.7 23 +31 +33 жарко 1009.8 1009.2
15 17.08 ЮВ 3 10 км 10/1 600 м
[Cb cap Ac cuf]
+29.1 +10.6 32 +29 +30 жарко 1010.6 1010.0 +33.7
18 17.08 ЮВ 2 10 км 10/1 600 м
[Cb cap Ac cuf]
+26.5 +10.0 35 +27 +27 жарко 1011.3 1010.7
21 17.08 ЮВ 2 10 км 10/3 600 м
[Cb cap Ac cuf]
+25.0 +12.3 45 +27 +27 жарко 1011.7 1011.1
00 18.08 В 2 10 км 10/3 600 м
[Cb cap Ac cuf]
+22.1 +13.4 58 +25 +25 комфорт 1012.0 1011.4
03 18.08 В 1 10 км 10/3 600 м
[Cb cap Ac cuf]
+21.1 +13.6 62 +24 +24 комфорт 1011.8 1011.1 +21.0
06 18.08 В 3 10 км 8/0
[Ac cast]
+25.8 +12.6 44 +28 +31 жарко 1012.1 1011.4
09 18.08 ЮВ 5-11
{11}
10 км 5/0
[Ac cast]
+34.1 +4.4 16 +32 +37 жарко 1011.6 1011.0
12 18.08 ЮВ 4-10
{11}
10 км пыльный позёмок 3/0
[Ci fib]
+36.0 +5.2 15 +33 +39 жарко 1011.2 1010.6
15 18.08 В 3
{11}
10 км 10/0
[Ac cast Ci fib]
+32.6 +7.2 21 +31 +31 жарко 1012.2 1011.6 +36.2
18 18.08 ЮВ 3 10 км 10/0
[Ac cast]
+28.4 +8.7 29 +28 +28 жарко 1014.0 1013.4

 

Местоположение метеостанции Черный Яр (Астраханская область, Россия): широта 48.07 долгота 46.12 высота над уровнем моря 5 м.

В архиве по умолчанию представлена погода в Черный Яр за последнюю неделю. Архивные данные за месяц целиком и за предыдущие месяцы, начиная с января 2011 года, Вы можете получить, выбрав интересующий диапазон дат из раскрывающегося списка и нажав кнопку "Ввод!".


*Определитесь, кто Вы:
робот инопланетянин человек

Внимание! Время в таблицах - всемирное. Для получения местного времени необходимо прибавить поправку, которая равна 4 ч.

Смотрите также архив погоды в соседних городах и на ближайших метеорологических станциях:

Погода в Верхнем Баскунчаке (Астраханская область, Россия) (48 км)
Погода в Юсте (Калмыкия, Россия) (106 км)
Погода в Малых Дербетах (Калмыкия, Россия) (107 км)
Погода в Харабали (Астраханская область, Россия) (113 км)
Погода в Урде (Западно-Казахстанская область, Казахстан) (124 км)
Погода в Эльтоне (Волгоградская область, Россия) (130 км)
Погода в Волгограде город (Волгоградская область, Россия) (140 км)
Погода в Кетченерах (Калмыкия, Россия) (143 км)
Погода в Волгограде (Волгоградская область, Россия) (151 км)
Погода в Жанибеке (Западно-Казахстанская область, Казахстан) (156 км)

Пояснения к столбцам:

Ветер - указаны скорость ветра в м/с - средняя за 10 мин, порывы в срок и между сроками (в фигурных скобках) и направление, откуда дует ветер: С - северный, СВ - северо-восточный, В - восточный, ЮВ - юго-восточный, Ю - южный, ЮЗ - юго-западный, З - западный, СЗ - северо-западный.
Видимость - горизонтальная дальность видимости в метрах или километрах. При видимости от 1 до 10 км при отсутствии осадков обычно наблюдается дымка, при ухудшении видимости до 1 км и менее - туман. В сухую погоду видимость может ухудшаться дымом, пылью или мглою.
Явления - указаны атмосферные явления, наблюдавшиеся в срок или в последний час перед сроком; фигурными скобками обозначены явления, наблюдавшиеся между сроками (за 1-3 часа до срока); квадратными скобками обозначены град или гололедные отложения с указанием их диаметра в мм.
Облачность - указаны через наклонную черту общая и нижняя облачность в баллах и высота нижней границы облаков в метрах; квадратными скобками обозначены формы облаков: Ci - перистые, Cs - перисто-слоистые, Cc - перисто-кучевые, Ac - высококучевые, As - высокослоистые, Sc - слоисто-кучевые, Ns - слоисто-дождевые, Cu - кучевые, Cb - кучево-дождевые. Подробнее классификацию облаков см. в Атласе облаков (PDF).
T - Температура воздуха - температура, измеренная на высоте 2 м над землей.
Td - Температура точки росы - температура, при понижении до которой содержащийся в воздухе водяной пар достигнет насыщения.
f - Относительная влажность воздуха - влажноcть воздуха, измеренная на высоте 2 м над землей.
Te - Эффективная температура - температура, которую ощущает одетый по сезону человек в тени. Характеристика душности погоды. При расчете учитывается влияние влажности воздуха и скорости ветра на теплоощущения человека.
Tes - Эффективная температура на солнце - температура, которую ощущает человек, с поправкой на солнечный нагрев. Характеристика знойности погоды. Зависит от высоты солнца над горизонтом, облачности и скорости ветра. Ночью, в пасмурную погоду, а также при ветре 12 м/с и более поправка равна нулю.
P - Атмосферное давление - приведенное к уровню моря атмосферное давление.
Po - Атмосферное давление - измеренное на уровне метеостанции атмосферное давление.
Tmin - Минимальная температура - минимум температуры воздуха на высоте 2 м над землей.
Tmax - Максимальная температура - максимум температуры воздуха на высоте 2 м над землей.
R - Количество осадков - Количество выпавших осадков за период времени, мм. При наведении курсора мыши на число - период времени, за который выпало указанное количество осадков.
R24 - Количество осадков - Количество выпавших осадков за 24 часа, мм.
S - Снежный покров - Высота снежного покрова, см. При наведении курсора мыши на число - состояние снежного покрова и степень покрытия местности в баллах.